軌道要素
Epoch 2011 Aug. 27.0 TT = JDT 2455800.5
T 2011 Aug. 22.83298 TT MPC
q 3.4975606 (2000.0) P Q
n 0.02408022 Peri. 340.65411 +0.38065821 -0.81083668
a 11.8766987 Node 84.80425 +0.89631464 +0.20529210
e 0.7055107 Incl. 26.51327 +0.22741898 +0.54808671
P 40.9
From 51 observations 2011 Dec. 25-2012 Feb. 20, mean residual 0".5.
|